Regional Weather Roundup
Issued by NWS Raleigh/Durham, NC

Home | Current Version | Previous Version | Text Only | Print | Product List | Glossary On
Versions: 1 2 3 4 5 6 7 8 9 10 11 12 13 14 15 16 17 18 19 20 21 22 23 24 25 26 27 28 29 30 31 32 33 34 35 36 37 38 39 40 41 42 43 44 45 46 47 48 49 50
000
ASUS42 KRAH 011210
RWRRAH
NORTH CAROLINA WEATHER ROUNDUP
NATIONAL WEATHER SERVICE RALEIGH NC
800 AM EDT TUE SEP 01 2015

NOTE: "FAIR" INDICATES FEW OR NO CLOUDS BELOW 12,000 FEET WITH NO
SIGNIFICANT WEATHER AND/OR OBSTRUCTIONS TO VISIBILITY.

NCZ001-053-055-056-065-067-011300-
WESTERN NORTH CAROLINA

CITY           SKY/WX    TMP DP  RH WIND       PRES   REMARKS
ASHEVILLE      SUNNY     65  61  87 NW5       30.22R
JEFFERSON      SUNNY     63  61  94 CALM      30.26R
MORGANTON      SUNNY     66  66  99 CALM      30.21R
HICKORY        SUNNY     68  65  90 NW6       30.15R
RUTHERFORDTON  SUNNY     69  66  91 NW3       30.15S
MOUNT AIRY     SUNNY     67  65  93 CALM      30.17R
BOONE          SUNNY     58  58 100 CALM      30.27R
$$

NCZ021-022-025-041-071-084-088-011300-
CENTRAL NORTH CAROLINA

CITY           SKY/WX    TMP DP  RH WIND       PRES   REMARKS
CHARLOTTE      SUNNY     72  68  87 CALM      30.14R
GREENSBORO     MOSUNNY   72  69  90 CALM      30.12R
WINSTON-SALEM  SUNNY     71  67  87 CALM      30.14R
RALEIGH-DURHAM MOSUNNY   69  68  96 CALM      30.11R
FORT BRAGG     SUNNY     69  68  97 CALM      30.10R
FAYETTEVILLE   MOSUNNY   71  69  93 N5        30.10R FOG
BURLINGTON     SUNNY     68  68 100 CALM      30.11R
LAURINBURG     MOSUNNY   68  67  96 CALM      30.12R FOG
$$

NCZ011-015-027-028-043-044-047-080-103-011300-
NORTHEASTERN NORTH CAROLINA

CITY           SKY/WX    TMP DP  RH WIND       PRES   REMARKS
ROCKY MT-WILSO CLOUDY    73  70  90 NW3       30.10R
GREENVILLE     CLOUDY    72  72 100 CALM      30.10R FOG
WASHINGTON     CLOUDY    72  71  97 CALM      30.08R
ELIZABETH CITY PTSUNNY   75  73  93 NW5       30.06R
MANTEO         CLOUDY    76  74  93 N5        30.05R
CAPE HATTERAS  CLOUDY    78  74  87 VRB6      30.04R
$$

NCZ078-087-090-091-093-098-101-011300-
SOUTHEASTERN NORTH CAROLINA

CITY           SKY/WX    TMP DP  RH WIND       PRES   REMARKS
LUMBERTON      CLOUDY    70  68  93 CALM      30.11R FOG
GOLDSBORO      CLOUDY    74  72  94 NW6       30.08R
KINSTON        PTSUNNY   73  73 100 CALM      30.10R FOG
KENANSVILLE      N/A     72  71  98 N3        30.11R FOG
NEW BERN       CLOUDY    76  73  91 NW6       30.08R
CHERRY POINT   PTSUNNY   76  73  91 NW7       30.07R
BEAUFORT       CLOUDY    75  75 100 NW8       30.07R
JACKSONVILLE   CLOUDY    75  72  90 W6        30.08
WILMINGTON     CLOUDY    73  72  96 NW3       30.09R
$$




USA.gov is the U.S. government's official web portal to all federal, state and local government web resources and services.